Location: Hobi?a Gr?di?te
(45.4833°N, 22.7833°E)
Time: 21:08:42
(UTC+00:00)

Nadezhda 2 Rocket - Pass Details

Date: 28 January 2023
Orbit: 947 x 1011 km, 83.0° (Epoch: 23 March)

Event Time Altitude Azimuth Distance (km) Brightness Sun altitude
Rises 17:35:14 0° 352° (N) 3,694 7.6 -22.1°
Reaches altitude 10° 17:37:47 10° 354° (N) 2,732 6.9 -22.5°
Maximum altitude 17:44:03 78° 81° (E) 989 4.3 -23.6°
Drops below altitude 10° 17:50:10 10° 168° (SSE) 2,675 6.7 -24.7°
Sets 17:52:38 0° 170° (S) 3,611 7.4 -25.1°
